Location: Newark
(45.7667°N, 11.5167°E)
Time: 18:22:07
(UTC+00:00)

ISS - Visible Passes

Search period start: 19 January 2020 00:00
Search period end: 29 January 2020 00:00
Orbit: 415 x 421 km, 51.6° (Epoch: 20 January)

Date Brightness Start Highest point End Pass type
(mag) Time Alt. Az. Time Alt. Az. Time Alt. Az.
19 Jan -1.3 18:11:41 10° SSW 18:12:26 14° S 18:12:26 14° S visible
20 Jan -1.8 17:24:36 10° S 17:26:40 15° SE 17:26:49 15° SE visible
20 Jan -0.4 18:59:39 10° WSW 18:59:47 11° WSW 18:59:47 11° WSW visible
21 Jan -2.6 18:11:45 10° SW 18:14:04 39° SSW 18:14:04 39° SSW visible
22 Jan -3.0 17:24:01 10° SSW 17:27:09 37° SE 17:28:16 28° E visible
22 Jan -0.5 19:00:37 10° W 19:01:13 14° W 19:01:13 14° W visible
23 Jan -2.2 16:36:31 10° SSW 16:39:16 23° SE 16:42:02 10° E visible
23 Jan -3.1 18:12:29 10° WSW 18:15:21 54° WNW 18:15:21 54° WNW visible
24 Jan -3.8 17:24:25 10° WSW 17:27:47 89° SSE 17:29:25 28° ENE visible
24 Jan -0.5 19:01:46 10° WNW 19:02:21 14° WNW 19:02:21 14° WNW visible
25 Jan -3.5 16:36:28 10° SW 16:39:47 58° SSE 16:43:06 10° ENE visible
25 Jan -2.6 18:13:31 10° W 18:16:22 36° NNW 18:16:22 36° NNW visible
26 Jan -3.1 17:25:17 10° W 17:28:34 47° NNW 17:30:20 23° NE visible
26 Jan -0.5 19:02:50 10° WNW 19:03:15 12° WNW 19:03:15 12° WNW visible
27 Jan -3.5 16:37:06 10° WSW 16:40:27 65° NNW 16:43:48 10° ENE visible
27 Jan -2.2 18:14:36 10° WNW 18:17:11 28° NNW 18:17:11 28° NNW visible
28 Jan -2.5 17:26:20 10° WNW 17:29:25 32° N 17:31:06 20° NE visible
28 Jan -0.5 19:03:40 10° NW 19:04:01 12° NW 19:04:01 12° NW visible
